Regional Weather Roundup
Issued by NWS Mt. Holly, NJ

Home | Current Version | Previous Version | Text Only | Print | Product List | Glossary On
Versions: 1 2 3 4 5 6 7 8 9 10 11 12 13 14 15 16 17 18 19 20 21 22 23 24 25 26 27 28 29 30 31 32 33 34 35 36 37 38 39 40 41 42 43 44 45 46 47 48 49 50
000
ASUS41 KPHI 072112
RWRPHI

REGIONAL WEATHER ROUNDUP
NATIONAL WEATHER SERVICE MOUNT HOLLY NJ
500 PM EDT TUE JUL 07 2015

NOTE:  "FAIR" INDICATES FEW OR NO CLOUDS BELOW 12,000 FEET WITH NO
SIGNIFICANT WEATHER AND/OR OBSTRUCTIONS TO VISIBILITY.

 * = STATION DOES NOT REPORT PRECIPITATION (E.G. RAIN, SNOW, ETC.)
        OR FOG.

NJZ015>026-072200-
SOUTHERN NEW JERSEY

CITY           SKY/WX    TMP DP  RH WIND       PRES   REMARKS
POMONA         MOSUNNY   85  72  65 S13       29.98F HX  91
RIO GRANDE*    SUNNY     86  72  62 S10G16    30.00F HX  92
MILLVILLE      MOSUNNY   88  72  58 VRB6      29.98F HX  94
WRIGHTSTOWN    MOSUNNY   88  71  55 SW16      29.93F HX  94
MOUNT HOLLY    SUNNY     87  68  52 SW10G17   29.95F HX  90
TRENTON        MOSUNNY   84  73  69 VRB3      29.95F HX  90

$$
NJZ001>014-072200-
NORTHERN NEW JERSEY

CITY           SKY/WX    TMP DP  RH WIND       PRES   REMARKS
SUSSEX         MOSUNNY   81  71  71 VRB3      29.95F
ANDOVER*         N/A     80  69  69 SW9       29.97S
MORRISTOWN     PTSUNNY   90  72  55 SW16G24   29.94F HX  96
NEWARK         PTSUNNY   86  72  62 S7        29.93F HX  92
TETERBORO      MOSUNNY   86  70  58 S12       29.92F HX  90
CALDWELL       PTSUNNY   87  68  52 SW8G17    29.93F HX  90
SOMERVILLE     MOSUNNY   87  69  54 S7        29.93S HX  91
ALLAIRE*       PTSUNNY   88  70  55 SW12G17   29.96S HX  92
TOMS RIVER*    PTSUNNY   90  70  51 S10G18    29.96F HX  95

$$
PAZ043-044-047-054-055-060>062-066>071-072200-
EASTERN PENNSYLVANIA

CITY           SKY/WX    TMP DP  RH WIND       PRES   REMARKS
PHILADELPHIA   MOSUNNY   90  67  46 SW15      29.96F HX  93
NORTH PHILA    PTSUNNY   88  66  48 SW9       29.97S HX  90
BLUE BELL      MOSUNNY   86  72  62 SW8       29.97S HX  92
DOYLESTOWN     LGT RAIN  82  71  69 SW7G17    29.96F
QUAKERTOWN*    MOSUNNY   84  72  65 SW9       29.99S
POTTSTOWN      SUNNY     83  73  72 SW6       29.99S
LANCASTER      MOSUNNY   84  67  56 SW13      29.97F
COATESVILLE    MOSUNNY   82  72  69 W5        30.01S
READING        SUNNY     86  68  54 SW9       29.96F
ALLENTOWN      PTSUNNY   85  71  63 SW8       29.96S HX  90
MOUNT POCONO   PTSUNNY   72  67  84 SW5       30.03F
HAZLETON       SUNNY     79  66  65 SW7       30.04S
WILKES BARRE   PTSUNNY   84  64  50 SW12G20   29.96S

$$
DEZALL-MDZ008-012-015-019-020-072200-
DELAWARE AND EASTERN MARYLAND

CITY           SKY/WX    TMP DP  RH WIND       PRES   REMARKS
WILMINGTON     MOSUNNY   87  68  52 SW12      29.98S HX  90
DOVER          SUNNY     88  69  53 SW12      29.97F HX  92
GEORGETOWN     SUNNY     87  71  58 SW13      30.01F HX  93
EASTON         MOSUNNY   90  72  55 SW10      30.03F HX  96
ABERDEEN       MOSUNNY   88  73  62 SW14      29.99S HX  96
PATUXENT       MOSUNNY   88  67  49 SW14      30.01S HX  91
OCEAN CITY     SUNNY     83  74  74 S12       30.02F
WALLOPS ISLAND SUNNY     85  77  77 S15       30.03F HX  95
CAMBRIDGE      MOSUNNY   88  70  55 SW9       30.00S HX  92
SALISBURY      MOSUNNY   86  73  65 S13       30.01F HX  93

$$
PAZ001-021-NYZ056-072-MDZ011-DCZ001-072200-
OTHER NEARBY LOCATIONS

CITY           SKY/WX    TMP DP  RH WIND       PRES   REMARKS
HARRISBURG     MOSUNNY   87  67  51 SW7       29.96S HX  90
STATE COLLEGE  MOSUNNY   84  66  54 SW9       29.97F
WILLIAMSPORT   MOSUNNY   87  68  52 S9        29.92S HX  90
BINGHAMTON     SUNNY     80  65  59 SW14      29.96R
NEW YORK CITY  MOSUNNY   82  71  69 S7        29.97F
BALTIMORE      MOSUNNY   88  68  51 SW9       29.98S HX  91
WASHINGTON DC  MOSUNNY   90  67  46 S13G24    29.99F HX  93

$$


USA.gov is the U.S. government's official web portal to all federal, state and local government web resources and services.